189P/NEAT (2007)

Japanese version
Home page
Total 5,708 html files since Dec. 4, 1995
Updated on September 24, 2007

---------------------------------------------------------------------

* Profile

Designation 189P/2007 N2
Recovery Date July 15, 2007
Magnitude 15.8 mag
Recoverer Lincoln Laboratory Near-Earth Asteroid Research project

* Pictures

* Orbital Elements

                    Epoch = 2007 Aug.  8.0 TT
     T = 2007 July 25.90695 TT        Peri. =  15.27124
     e = 0.5976949                    Node  = 282.20178 2000.0
     q = 1.1733898 AU                 Incl. =  20.40165
       a =  2.9166666 AU   n = 0.19786724   P =   4.981 years

* Finding Charts

* Magnitudes Graph

        m1 = 18.5 + 5 log d + 10.0 log r

---------------------------------------------------------------------

The orbital elements are printed on IAUC 8856.
The charts are made with StellaNavigator Ver.2.0 for Windows (AstroArts / ASCII).
The magnitudes graphs are made with Comet for Windows.

---------------------------------------------------------------------

Copyright(C) 1995-2007 Seiichi Yoshida (comet@aerith.net). All rights reserved.